St. Augustine, FL

12:17 AM EST on December 16, 2019 (GMT -0500)
Saint Augustine

Weather History for KSGJ - November, 2019

Change the Weather History Date:

Sunday, November 17, 2019

  Actual Average Record
Temperature  
Mean Temperature 50 °F -  
Max Temperature 53 °F 70 °F 87 °F (1986)
Min Temperature 48 °F 54 °F 35 °F (1997)
Degree Days  
Heating Degree Days 14    
Moisture  
Dew Point 46 °F    
Average Humidity 85    
Maximum Humidity 93    
Minimum Humidity 77    
Precipitation  
Precipitation 0.00 in - - ()
Sea Level Pressure  
Sea Level Pressure 29.93 in    
Wind  
Wind Speed 10 mph (WNW)    
Max Wind Speed 14 mph    
Max Gust Speed -    
Visibility 9 miles    
Events      
Averages and records for this station are not official NWS values.
T = Trace of Precipitation, MM = Missing Value Source: NWS Daily Summary

Daily Weather History Graph

Daily Weather History Graph

Search for Another Location

Airport or City:

Astronomy

Nov. 17, 2019 Rise Set
Actual Time 6:51 AM EST 5:28 PM EST
Civil Twilight 6:26 AM EST 5:53 PM EST
Nautical Twilight 5:57 AM EST 6:22 PM EST
Astronomical Twilight 5:28 AM EST 6:51 PM EST
Moon 10:08 PM EST (11/17) 11:30 AM EST (11/17)
Length of Visible Light 11h 27m
Length of Day
10h 36m
Waning Gibbous, 73% of the Moon is Illuminated
Nov 17
Waning Gibbous
Nov 19
Last Quarter
Nov 26
New
Dec 4
First Quarter
Dec 12
Full

Hourly Weather History & Observations

Time (EST) Temp. Dew Point Humidity Pressure Visibility Wind Dir Wind Speed Gust Speed Precip Events Conditions
12:56 AM 50.0 °F 45.0 °F 83% 29.94 in 10.0 mi NW 10.4 mph - N/A   Overcast
1:56 AM 50.0 °F 45.0 °F 83% 29.92 in 10.0 mi North - - N/A   Overcast
2:56 AM 50.0 °F 46.0 °F 86% 29.91 in 10.0 mi NW 10.4 mph - N/A   Overcast
3:56 AM 50.0 °F 46.0 °F 86% 29.92 in 10.0 mi North - - N/A   Overcast
4:56 AM 50.0 °F 46.0 °F 86% 29.93 in 10.0 mi NW 13.8 mph - N/A   Overcast
5:56 AM 48.9 °F 46.0 °F 90% 29.94 in 10.0 mi NW 12.7 mph - N/A   Overcast
6:56 AM 48.9 °F 46.0 °F 90% 29.96 in 10.0 mi NW 10.4 mph - N/A   Overcast
7:21 AM 48.2 °F 46.4 °F 93% 29.96 in 10.0 mi NW 13.8 mph - N/A   Overcast
7:56 AM 48.9 °F 46.0 °F 90% 29.97 in 10.0 mi NW 12.7 mph - N/A   Overcast
8:56 AM 48.9 °F 45.0 °F 86% 29.98 in 10.0 mi NNW 12.7 mph - N/A   Overcast
9:16 AM 48.2 °F 44.6 °F 87% 29.98 in 10.0 mi NNW 12.7 mph - N/A   Overcast
9:56 AM 50.0 °F 45.0 °F 83% 29.98 in 10.0 mi NW 12.7 mph - N/A   Overcast
10:56 AM 51.1 °F 45.0 °F 80% 29.98 in 10.0 mi NW 11.5 mph - N/A   Overcast
11:56 AM 51.1 °F 46.0 °F 83% 29.96 in 10.0 mi NNW 12.7 mph - N/A   Overcast
12:56 PM 52.0 °F 46.0 °F 80% 29.93 in 7.0 mi NNW 11.5 mph - N/A   Overcast
1:56 PM 53.1 °F 46.0 °F 77% 29.92 in 7.0 mi NNW 9.2 mph - N/A   Overcast
2:41 PM 53.6 °F 46.4 °F 77% 29.91 in 5.0 mi NNW 9.2 mph - N/A   Haze
2:56 PM 53.1 °F 46.0 °F 77% 29.91 in 6.0 mi North 8.1 mph - N/A   Haze
3:56 PM 53.1 °F 46.0 °F 77% 29.91 in 6.0 mi NNW 8.1 mph - N/A   Haze
4:56 PM 53.1 °F 46.0 °F 77% 29.91 in 10.0 mi West 3.5 mph - N/A   Overcast
5:13 PM 51.8 °F 46.4 °F 82% 29.91 in 10.0 mi West 3.5 mph - N/A   Scattered Clouds
5:56 PM 50.0 °F 46.9 °F 89% 29.90 in 10.0 mi WSW 3.5 mph - N/A   Clear
6:56 PM 50.0 °F 46.9 °F 89% 29.92 in 10.0 mi WSW 4.6 mph - N/A   Mostly Cloudy
7:56 PM 51.1 °F 46.9 °F 86% 29.91 in 10.0 mi SW 3.5 mph - N/A   Overcast
8:56 PM 50.0 °F 46.9 °F 89% 29.91 in 10.0 mi WSW 6.9 mph - N/A   Overcast
9:56 PM 51.1 °F 48.0 °F 89% 29.92 in 10.0 mi WSW 6.9 mph - N/A   Overcast
10:56 PM 52.0 °F 48.9 °F 89% 29.92 in 10.0 mi West 10.4 mph - N/A   Overcast
11:56 PM 52.0 °F 48.9 °F 89% 29.90 in 10.0 mi West 9.2 mph - N/A   Overcast